[[{"header":{"parameterUnit":"m.s-1","parameterCategory":1,"la1":30.2991,"la2":30.254,"lo1":-89.0895,"lo2":-89.0444,"dy":0.0017,"dx":0.0017,"nx":28,"ny":28,"refTime":"2023-08-29T03:00:00:Z","depth":0,"parameterNumber":2,"parameterNumberName":"U-component_of_WINDS"},"data":[0,0,0,0,0,0,0,0,0,0,0,0,0,0,0,0,0,0,0,0,0,0,0,0,0,0,0,0,0,0,0,0,0,0,0,0,0,0,0,0,0,0,0,0,0,0,0,0,0,0,0,0,0,0,0,0,0,0,0.3,0.2999,0,0.2956,0.2955,0.2955,0.2935,0.2936,0.2936,0.2936,0.2888,0.2886,0.2885,0,0,0,0,0,0,0,0,0,0,0,0,0,0.3064,0.3063,0.3,0.2999,0.2999,0.2956,0.2955,0.2955,0.2935,0.2936,0.2936,0.2936,0.2888,0.2887,0.2885,0,0,0,0,0,0,0,0,0,0,0,0,0,0.303,0.3063,0.3,0.2984,0.2982,0.2956,0.2955,0.2954,0.2935,0.2936,0.2936,0.2936,0.2889,0.2887,0.2885,0.287,0,0,0.2878,0.2878,0,0,0,0,0,0,0,0,0.3032,0.3027,0.2987,0.2985,0.2983,0.2951,0.296,0.2926,0.2935,0.2953,0.2936,0.2936,0.2909,0.2905,0.2896,0.2868,0.2866,0.2878,0.2877,0.2876,0.2876,0,0,0,0,0,0,0,0.3034,0.3029,0.2982,0.2986,0.2984,0.2978,0.2973,0.2954,0.2931,0.2952,0.295,0.2945,0.2907,0.2898,0.2895,0.2865,0.2878,0.2877,0.2875,0.2875,0.2821,0.2821,0,0,0,0,0,0,0.3039,0.3031,0.2984,0.2981,0.3008,0.2977,0.2971,0.2961,0.2931,0.2926,0.2945,0.2945,0.2902,0.2897,0.2893,0.2874,0.2876,0.2874,0.2873,0.2821,0.2821,0.2821,0,0,0,0,0,0,0.3041,0.3035,0.2985,0.3006,0.2999,0.2976,0.2964,0.296,0.2951,0.2926,0.2922,0.294,0.2902,0.2896,0.2876,0.2872,0.2873,0.2872,0.2822,0.2821,0.2821,0.2835,0,0,0,0,0,0,0.3043,0.3036,0.3031,0.3006,0.2998,0.297,0.2964,0.2959,0.2948,0.2947,0.292,0.2916,0.2901,0.2879,0.2874,0.2869,0.287,0.2822,0.2821,0.2821,0.2834,0.2835,0.2835,0,0,0,0,0,0.3045,0.3036,0.3031,0.3025,0.2991,0.297,0.2965,0.2949,0.2948,0.2942,0.2926,0.2917,0.2873,0.2877,0.2871,0.2866,0.2822,0.2822,0.2821,0.2834,0.2835,0.2835,0,0,0,0,0,0,0.306,0.3032,0.3026,0.3009,0.2992,0.2966,0.2959,0.295,0.2932,0.2932,0.2912,0.2906,0.2888,0.2874,0.288,0.2849,0.2847,0.2845,0.2859,0.2859,0.2859,0.2863,0.2868,0,0,0,0,0,0.3062,0.3048,0.3024,0.301,0.3002,0.2982,0.2972,0.2961,0.2942,0.2935,0.2917,0.2898,0.288,0.2869,0.2851,0.2832,0.2826,0.2825,0.2826,0.2826,0.2825,0.2814,0.2813,0.2819,0.2819,0.2819,0,0,0.3064,0.3047,0.3039,0.3013,0.2999,0.2983,0.2976,0.296,0.2948,0.2932,0.2912,0.2899,0.2876,0.2857,0.2847,0.2845,0.2822,0.2826,0.2826,0.2825,0.2813,0.2812,0.2812,0.2819,0.2819,0.2819,0,0,0.3061,0.3047,0.3035,0.3021,0.2999,0.2986,0.2983,0.2958,0.2949,0.2929,0.2916,0.2901,0.2871,0.2856,0.2844,0.2835,0.2825,0.2829,0.2831,0.282,0.282,0.2819,0.2815,0.2814,0.2828,0.2828,0.2828,0,0.3067,0.3045,0.3029,0.3014,0.3002,0.2988,0.2974,0.2961,0.2934,0.2926,0.2925,0.2886,0.287,0.2846,0.2844,0.2835,0.283,0.2832,0.2821,0.282,0.282,0.2816,0.2815,0.2829,0.2828,0.2828,0.2828,0,0.3052,0.3037,0.3029,0.3005,0.2992,0.2978,0.296,0.2948,0.2939,0.2925,0.2904,0.2885,0.2862,0.2856,0.2846,0.2831,0.283,0.2825,0.2822,0.282,0.2816,0.2814,0.2829,0.2829,0.2829,0.2829,0,0,0.3058,0.3025,0.3023,0.3011,0.2986,0.2974,0.2958,0.2937,0.2928,0.291,0.2896,0.2871,0.2866,0.2852,0.284,0.2831,0.2825,0.2827,0.2826,0.2827,0.2806,0.281,0.2809,0.2818,0.2818,0.2818,0.2808,0,0.3051,0.3024,0.301,0.2989,0.2974,0.296,0.2946,0.2929,0.2916,0.29,0.2885,0.2867,0.2862,0.2854,0.2844,0.2828,0.282,0.2828,0.2804,0.2804,0.281,0.2807,0.2811,0.2802,0.2806,0.2806,0.2806,0,0.304,0.3023,0.3001,0.2978,0.2971,0.2959,0.2939,0.2924,0.2904,0.2895,0.288,0.2868,0.2851,0.2849,0.2824,0.283,0.2819,0.2809,0.2809,0.2806,0.2805,0.2803,0.2799,0.2798,0.2803,0.2803,0.2804,0,0.3046,0.3017,0.3,0.2991,0.2964,0.2956,0.2944,0.2924,0.2912,0.2893,0.2885,0.2865,0.2854,0.2838,0.282,0.2821,0.2796,0.2794,0.2788,0.2788,0.2783,0.2784,0.2777,0.2777,0.2777,0.2777,0.2777,0,0.304,0.3027,0.3003,0.2992,0.2977,0.296,0.2944,0.2931,0.2913,0.2899,0.2885,0.2872,0.285,0.2834,0.282,0.2801,0.2796,0.2787,0.2784,0.2788,0.279,0.2781,0.2781,0.2776,0.2776,0.2777,0.2777,0,0.3044,0.3027,0.3008,0.2983,0.2977,0.2967,0.2945,0.2934,0.292,0.2902,0.2897,0.2875,0.2855,0.2836,0.2809,0.28,0.2781,0.2776,0.2788,0.2786,0.2781,0.2782,0.2769,0.2766,0.2768,0.2768,0.2768,0,0.3041,0.3031,0.3006,0.2996,0.2984,0.2968,0.2956,0.2939,0.2927,0.2903,0.2894,0.2873,0.2856,0.2825,0.2805,0.2785,0.2779,0.2776,0.2776,0.2781,0.2779,0.278,0.2778,0.2776,0.2777,0.2777,0.2777,0,0.3038,0.303,0.3014,0.2995,0.2982,0.2966,0.2949,0.2941,0.292,0.2907,0.2887,0.2874,0.2847,0.2826,0.2803,0.279,0.2779,0.2777,0.2774,0.2779,0.2786,0.2782,0.2789,0.2777,0.2777,0.2777,0.2777,0.2777,0.3038,0.3028,0.3009,0.2991,0.2977,0.2962,0.295,0.2935,0.2918,0.2896,0.2886,0.2866,0.2845,0.2813,0.28,0.2783,0.278,0.2777,0.2776,0.2775,0.2776,0.2789,0.2778,0.2778,0.2778,0.2778,0.2778,0,0.3034,0.3021,0.3005,0.2983,0.2969,0.2961,0.2942,0.2931,0.2913,0.2895,0.2879,0.2855,0.2835,0.2815,0.2793,0.2783,0.2778,0.2778,0.2779,0.2775,0.2779,0.2784,0.2783,0.2783,0.2783,0.2783,0.2783,0.2783,0.303,0.3013,0.3003,0.2978,0.2965,0.2946,0.2935,0.2921,0.2906,0.2881,0.2865,0.2852,0.2832,0.2809,0.279,0.2784,0.2777,0.2778,0.2771,0.2775,0.2775,0.2775,0.2779,0.2777,0.2777,0.2769,0.2769,0.2769]},{"header":{"parameterUnit":"m.s-1","parameterCategory":1,"la1":30.2991,"la2":30.254,"lo1":-89.0895,"lo2":-89.0444,"dy":0.0017,"dx":0.0017,"nx":28,"ny":28,"refTime":"2023-08-29T03:00:00:Z","depth":0,"parameterNumber":3,"parameterNumberName":"V-component_of_WINDS"},"data":[0,0,0,0,0,0,0,0,0,0,0,0,0,0,0,0,0,0,0,0,0,0,0,0,0,0,0,0,0,0,0,0,0,0,0,0,0,0,0,0,0,0,0,0,0,0,0,0,0,0,0,0,0,0,0,0,0,0,-3.7966,-3.7966,0,-3.8021,-3.8022,-3.8022,-3.7968,-3.7965,-3.7963,-3.7961,-3.8012,-3.8015,-3.8019,0,0,0,0,0,0,0,0,0,0,0,0,0,-3.7808,-3.7811,-3.7966,-3.7966,-3.7967,-3.8021,-3.8022,-3.8023,-3.7968,-3.7965,-3.7963,-3.796,-3.8011,-3.8015,-3.8019,0,0,0,0,0,0,0,0,0,0,0,0,0,-3.7871,-3.7812,-3.7966,-3.7947,-3.7945,-3.8021,-3.8022,-3.8023,-3.7968,-3.7965,-3.7962,-3.7959,-3.801,-3.8015,-3.8019,-3.8115,0,0,-3.8035,-3.8037,0,0,0,0,0,0,0,0,-3.7867,-3.7877,-3.7949,-3.7948,-3.7947,-3.7984,-3.7985,-3.8053,-3.7969,-3.796,-3.7961,-3.7957,-3.8005,-3.801,-3.8027,-3.8117,-3.8119,-3.8035,-3.8038,-3.804,-3.8042,0,0,0,0,0,0,0,-3.7863,-3.7874,-3.7987,-3.795,-3.7949,-3.7934,-3.7939,-3.7998,-3.7999,-3.796,-3.7956,-3.7964,-3.8004,-3.8023,-3.8028,-3.812,-3.8035,-3.804,-3.8043,-3.8045,-3.8293,-3.8296,0,0,0,0,0,0,-3.7862,-3.7871,-3.7986,-3.7989,-3.7899,-3.7939,-3.7945,-3.7975,-3.7999,-3.7999,-3.7967,-3.7961,-3.8016,-3.8022,-3.803,-3.8145,-3.804,-3.8045,-3.8048,-3.8289,-3.8294,-3.8297,0,0,0,0,0,0,-3.7858,-3.7872,-3.7983,-3.7929,-3.7942,-3.7945,-3.798,-3.7978,-3.7997,-3.8004,-3.8003,-3.7986,-3.8013,-3.8023,-3.8095,-3.8145,-3.8047,-3.8052,-3.8285,-3.8291,-3.8295,-3.8374,0,0,0,0,0,0,-3.7854,-3.7872,-3.7909,-3.793,-3.7945,-3.8049,-3.7983,-3.7982,-3.8007,-3.8,-3.8022,-3.8022,-3.8012,-3.8088,-3.81,-3.8151,-3.8056,-3.828,-3.8287,-3.8294,-3.8367,-3.8381,-3.8394,0,0,0,0,0,-3.7849,-3.7927,-3.7911,-3.7925,-3.7992,-3.8052,-3.8061,-3.8049,-3.8011,-3.8048,-3.8052,-3.8021,-3.8138,-3.8096,-3.8109,-3.8162,-3.8277,-3.8285,-3.8293,-3.8361,-3.8379,-3.8393,0,0,0,0,0,0,-3.7908,-3.7929,-3.7912,-3.8,-3.8025,-3.8043,-3.8089,-3.8067,-3.8102,-3.8094,-3.8076,-3.8082,-3.8159,-3.8167,-3.812,-3.8256,-3.8201,-3.8212,-3.8248,-3.8265,-3.8278,-3.8275,-3.806,0,0,0,0,0,-3.7932,-3.7981,-3.7996,-3.8072,-3.8086,-3.8086,-3.8111,-3.81,-3.8125,-3.8135,-3.8144,-3.8168,-3.821,-3.8238,-3.8276,-3.8368,-3.8372,-3.8411,-3.8424,-3.8435,-3.8445,-3.8496,-3.8513,-3.8324,-3.8324,-3.8324,0,0,-3.7981,-3.7998,-3.803,-3.8084,-3.8103,-3.8153,-3.8095,-3.8149,-3.8186,-3.8142,-3.8212,-3.822,-3.8245,-3.8328,-3.8365,-3.8337,-3.8499,-3.8446,-3.8454,-3.8458,-3.8506,-3.8524,-3.854,-3.8329,-3.8328,-3.8327,0,0,-3.8096,-3.8114,-3.818,-3.8201,-3.823,-3.823,-3.8246,-3.8268,-3.8273,-3.8343,-3.8312,-3.8354,-3.8427,-3.8447,-3.8466,-3.8591,-3.8564,-3.8604,-3.8674,-3.8724,-3.8739,-3.8752,-3.8798,-3.8814,-3.8614,-3.8614,-3.8614,0,-3.8152,-3.8228,-3.8216,-3.8275,-3.83,-3.8265,-3.8332,-3.8352,-3.8391,-3.8409,-3.8378,-3.847,-3.8484,-3.8572,-3.8604,-3.862,-3.8638,-3.8602,-3.8738,-3.8751,-3.8763,-3.8806,-3.8824,-3.8619,-3.8618,-3.8618,-3.8617,0,-3.8296,-3.835,-3.8399,-3.8442,-3.8473,-3.8535,-3.8532,-3.8564,-3.8551,-3.8554,-3.8626,-3.8642,-3.8685,-3.8705,-3.8691,-3.8791,-3.8774,-3.8741,-3.8685,-3.8786,-3.8827,-3.8843,-3.8626,-3.8624,-3.8622,-3.8621,0,0,-3.8449,-3.8487,-3.8505,-3.8526,-3.8557,-3.8597,-3.8657,-3.8702,-3.873,-3.8759,-3.8809,-3.8873,-3.8843,-3.8866,-3.8854,-3.8897,-3.8997,-3.8859,-3.8859,-3.8885,-3.911,-3.9136,-3.9155,-3.898,-3.8983,-3.8985,-3.9109,0,-3.8565,-3.8674,-3.8666,-3.8767,-3.8817,-3.8786,-3.8839,-3.8863,-3.8868,-3.8909,-3.8913,-3.8959,-3.8916,-3.893,-3.8971,-3.8977,-3.9042,-3.8967,-3.9026,-3.9028,-3.9022,-3.9176,-3.9202,-3.9318,-3.9124,-3.9127,-3.9129,0,-3.8716,-3.8754,-3.8861,-3.8888,-3.8908,-3.8956,-3.8997,-3.9037,-3.9064,-3.9064,-3.9091,-3.9073,-3.9133,-3.9077,-3.916,-3.9109,-3.9132,-3.9139,-3.9143,-3.9148,-3.9085,-3.9186,-3.9354,-3.9372,-3.9153,-3.9151,-3.915,0,-3.8818,-3.8896,-3.8971,-3.8988,-3.902,-3.9055,-3.907,-3.9094,-3.9122,-3.9157,-3.9175,-3.9215,-3.9238,-3.9269,-3.9262,-3.9222,-3.9348,-3.929,-3.9349,-3.935,-3.9377,-3.9376,-3.9552,-3.9391,-3.9391,-3.9391,-3.939,0,-3.895,-3.9017,-3.9017,-3.9063,-3.9138,-3.9128,-3.9201,-3.9211,-3.9234,-3.928,-3.9254,-3.9298,-3.9286,-3.933,-3.9324,-3.9395,-3.9404,-3.9406,-3.9404,-3.9409,-3.9409,-3.9424,-3.9416,-3.9395,-3.9394,-3.9393,-3.9393,0,-3.9076,-3.9079,-3.9159,-3.9184,-3.9192,-3.9246,-3.9267,-3.931,-3.9313,-3.9373,-3.9386,-3.9391,-3.9441,-3.9437,-3.9492,-3.9489,-3.9576,-3.9564,-3.9568,-3.9566,-3.9625,-3.962,-3.9818,-3.9844,-3.9666,-3.9668,-3.9669,0,-3.916,-3.9212,-3.9244,-3.9275,-3.9293,-3.9342,-3.9372,-3.9364,-3.9395,-3.9432,-3.947,-3.9518,-3.9557,-3.9638,-3.9645,-3.9687,-3.9677,-3.9743,-3.9682,-3.9687,-3.9679,-3.9676,-3.9682,-3.9755,-3.9757,-3.9759,-3.976,0,-3.931,-3.931,-3.9354,-3.9401,-3.9437,-3.9472,-3.9504,-3.953,-3.9526,-3.9562,-3.9615,-3.9645,-3.9703,-3.9751,-3.9792,-3.9805,-3.9782,-3.9779,-3.9795,-3.9801,-3.9802,-3.9804,-3.9601,-3.9775,-3.9773,-3.9772,-3.9771,-3.9771,-3.9418,-3.9464,-3.9494,-3.9545,-3.9569,-3.9601,-3.9643,-3.9653,-3.9698,-3.9747,-3.9739,-3.9798,-3.9824,-3.9878,-3.9895,-3.994,-3.9916,-3.9939,-3.9945,-3.9951,-3.9959,-3.9795,-3.9947,-3.9947,-3.9946,-3.9946,-3.9946,0,-3.9567,-3.9587,-3.9634,-3.9681,-3.9722,-3.9699,-3.9734,-3.9768,-3.9822,-3.985,-3.9889,-3.995,-3.9997,-4.0009,-4.0054,-4.0088,-4.0079,-4.01,-4.0098,-4.0102,-3.9977,-3.9959,-4.0107,-4.0107,-4.0107,-4.0107,-4.0107,-4.0107,-3.965,-3.9726,-3.973,-3.9818,-3.9835,-3.9895,-3.9917,-3.9946,-3.9968,-4.0039,-4.0079,-4.0087,-4.0109,-4.0156,-4.0199,-4.0201,-4.0219,-4.0245,-4.0243,-4.0126,-4.011,-4.0095,-4.0078,-4.0249,-4.0249,-4.0364,-4.0365,-4.0366]}]]